Regional Weather Roundup
Issued by NWS

Home | Current Version | Previous Version | Graphics & Text | Print | Product List | Glossary On
Versions: 1 2 3 4 5 6 7 8 9 10 11 12 13 14 15 16 17 18 19 20 21 22 23 24 25 26 27 28 29 30 31 32 33 34 35 36 37 38 39 40 41 42 43 44 45 46 47 48 49 50
975
ASUS43 KLMK 240310
RWRKY
KENTUCKY REGIONAL WEATHER ROUNDUP
NATIONAL WEATHER SERVICE LOUISVILLE KY
1100 PM EDT FRI JUN 23 2017

NOTE "FAIR" INDICATES FEW OR NO CLOUDS BELOW 12,000 FEET
WITH NO SIGNIFICANT WEATHER AND/OR OBSTRUCTIONS TO VISIBILITY.

KYZ001>023-026-027-061>063-070>075-240400-
WESTERN AND SOUTH CENTRAL KENTUCKY

CITY           SKY/WX    TMP DP  RH WIND       PRES   REMARKS
PADUCAH        CLOUDY    75  65  70 NW6       29.90R
HENDERSON      MOCLDY    74  69  85 CALM      29.89R
OWENSBORO      CLOUDY    74  71  91 N7        29.88R
HOPKINSVILLE   CLOUDY    73  71  91 W6        29.89R
BOWLING GREEN  CLOUDY    77  75  93 W6        29.87R
GLASGOW        HVY RAIN N/A N/A N/A CALM      29.87R VSB 1
$$

KYZ024-025-028>034-038-045-046-053-240400-
NORTH CENTRAL KENTUCKY

CITY           SKY/WX    TMP DP  RH WIND       PRES   REMARKS
LOUISVILLE/SDF CLOUDY    73  71  93 N9        29.84R
LOUISVILLE/LOU CLOUDY    74  73  97 NW7       29.85R
FORT KNOX      MOCLDY    73  73 100 W5        29.84R
$$

KYZ035>037-039>044-047>052-055>060-089>105-240400-
NORTHEAST KENTUCKY

CITY           SKY/WX    TMP DP  RH WIND       PRES   REMARKS
LEXINGTON      CLOUDY    69  66  90 SW7       29.86R
COVINGTON      CLOUDY    69  68  96 W8        29.83R
FRANKFORT      CLOUDY    70  67  90 S3        29.84R
$$

KYZ054-064>069-076>088-106>120-240400-
SOUTHEAST KENTUCKY

CITY           SKY/WX    TMP DP  RH WIND       PRES   REMARKS
JACKSON        CLOUDY    65  64  97 VRB3      29.90R
LONDON         CLOUDY    68  66  93 W6        29.92R
SOMERSET       CLOUDY    68  68 100 CALM      29.91R
MIDDLESBORO    RAIN      68  68 100 NE3       29.94R
MONTICELLO     CLOUDY    71  69  93 N9        29.92R
$$





USA.gov is the U.S. government's official web portal to all federal, state and local government web resources and services.